Погода Сумы

Погода Сумы : погода сейчас, прогноз погоды и архив. Всё, что Вы хотите узнать о погоде Сумы!

Хотите узнать прогноз погоды Сумы? Тогда Вам сюда: Погода Сумы

Поиск расширенной информации на нашем сайте:

Другие новости

Новости СМИ2

Главная страница сайта

Новости сайта

03.07.2017

Напоминаем, что на нашем специализированном сайте Метеоцентр.Азия вы можете получить высокодетализированные автоматические прогнозы погоды по пунктам России, СНГ и мира в авиационном формате (включающие направление и скорость ветра, видимость, явления погоды, количество и форму облачности, нижнюю и верхнюю границу облачности).

Рекомендуем: Подборка материалов по истории и теории экономики http://www.econbook.ru/

Погода Сумы - сегодня

Время (UTC), дата Ветер
(°,м/с) 
Видим.   Явления Облачность Т
(°С)
Тd
(°С)
f(%) Тe
(°С)
Pmin
(гПа)
dP
(гПа)
Po
(мм)
O2
(г/м3)
Тmin Tmax R s Состояние
почвы
21 15.06.18 350 (С) 10 км  гроза без осадков  8/5 1000 м кучево-дожд., средняя 
[Cb cap|Ac trans]
+19.9 +15.3 75 +29  1014.1  3.8  745  276           
00 16.06.18 090 (В) 10 км  в посл. час гроза{ливн. осадки}  9/5 600 м кучево-дожд., средняя 
[Cb cap|Ac trans]
+17 +16 94 +28  1014.9  0.6  745  279         
03 16.06.18 080 (В) 10 км  {ливн. осадки}  8/4 1000 м кучево-дожд., средняя 
[Cb calv|Ac trans]
+16.2 +13.5 84 +23  1014.2  -0.8  745  280           
06 16.06.18 100 (В) 10 км  слаб. ливневой дождь  9/6 600 м кучево-дожд., средняя 
[Cb calv|Ac trans]
+15.3 +12.9 86 +20  1014.4  0.2  745  282  +15.3       
09 16.06.18 060 (СВ) 10 км  {ливн. осадки}  8/4 600 м кучево-дожд., средняя 
[Cb calv|Ac trans]
+18.1 +13.1 73 +24  1014.6  0.4  745  279           
12 16.06.18 070 (В) 10 км  {ливн. осадки}  8/4 600 м кучево-дожд., средняя 
[Cb calv|Ac trans]
+20.7 +13.8 65 +28  1014.6  0.2  745  276      0.3     
15 16.06.18 070 (В) 10 км    8/4 600 м кучево-дожд., средняя 
[Cb calv|Ac trans]
+23.2 +14.2 57 +31  1014  -0.4  745  274           
18 16.06.18 070 (В) 10 км    8/5 600 м средняя 
[Sc|Ac trans]
+20.9 +12.4 58 +26  1014.4  0.2  745  276    +23.9  0.3     
21 16.06.18 070 (В) 10 км    6/0 средняя 
[Ac trans]
+20.3 +11.7 58 +24  1014.9  0.4  745  277           
00 17.06.18 080 (В) 10 км    8/5 600 м кучево-дожд., средняя 
[Cb calv|Ac trans]
+18.7 +12.2 66 +23  1015.2  0.2  745  279           
03 17.06.18 100 (В) 10 км    8/6 600 м средняя 
[Sc|Ac trans]
+17.5 +11 66 +21  1015.3  745  280           
06 17.06.18 110 (В) 10 км    8/5 600 м средняя 
[Sc|Ac trans]
+19.7 +11.1 58 +23  1015.3  0.2  746  278  +17.3         
09 17.06.18 100 (В) 10 км    4/0 средняя 
[Ac trans]
+23.1 +11.3 47 +26  1015.5  0.4  746  275           
12 17.06.18 110 (В) 10 км    3/0 средняя 
[Ac trans]
+25.5 +13 46 +31  1015.1  -0.2  746  272           
15 17.06.18 110 (В) 10 км    3/0 верхняя 
[Ci fib]
+25.4 +11.8 43 +29  1014.2  -0.9  745  272           
18 17.06.18 070 (В) 10 км    3/0 верхняя 
[Ci fib]
+22.6 +12.4 52 +27  1014.8  0.4  745  275    +25.6       
21 17.06.18 080 (В) 10 км    ясно 
+18.4 +11.5 64 +22  1015.5  0.4  746  279           
00 18.06.18 080 (В) 10 км    ясно 
+15.8 +9.2 65 +17  1016.1  0.3  746  282           
03 18.06.18 тихо ()   10 км    3/0 верхняя 
[Ci fib]
+15.3 +11 76 +18  1016  -0.1  746  283           
06 18.06.18 110 (В) 10 км    6/0 верхняя 
[Ci fib]
+20.9 +10.9 53 +23  1015.9  0.3  746  277  +14.5         
09 18.06.18 060 (СВ) 10 км    3/0 верхняя 
[Ci fib]
+24.6 +9.9 39 +26  1015.5  -0.1  746  274           
12 18.06.18 070 (В) 10 км    3/3 600 м 
[Cu hum]
+25.4 +10.6 39 +27  1015.2  -0.2  746  273           
15 18.06.18 110 (В) 10 км    ясно 
+25.7 +10.6 39 +28  1014.3  -0.9  745  273           
18 18.06.18 090 (В) 10 км    3/0 верхняя 
[Ci fib]
+23 +11.4 48 +26  1014.7  0.2  745  275    +26.6       
00 19.06.18 300 (СЗ) 10 км    ясно 
+14.2 +12.4 89 +20  1016.4  0.3  746  283           
Время (UTC), дата Ветер
(°,м/с) 
Видим.   Явления Облачность Т
(°С)
Тd
(°С)
f(%) Тe
(°С)
Pmin
(гПа)
dP
(гПа)
Po
(мм)
O2
(г/м3)
Тmin Tmax R s Состояние
почвы

Для получения пояснительной информации подведите курсор к названию столбца.

ПОГОДА Сумы - архив

Всё, что Вы хотите узнать о погоде Сумы - удобно и подробно!

Выберите нужную дату (начиная с 1 января 2015* года) и нажмите кнопку "Найти".
Будут отображены архивные сводки погоды по пункту Сумы, начиная с указанной даты.


Отображать данные в формате CSV (для использования в таблицах Excel)


Внимание! Наш архив погоды предназначен исключительно для личного некоммерческого использования в познавательных целях. Если Вам необходимы официальные справки о состоянии погоды (для производственных, юридических, коммерческих и т.п. целей), обращайтесь в органы Росгидромета.

*Примечание: данная дата относится к архиву по метеостанциям СССР (Россия, СНГ, Балтия).
Архив по метеостанциям Зарубежной Европы и Азии (кроме Китая) хранится 10 дней, по другим регионам земного шара (Китай, Африка, Америка, Австралия, Океания) - 1 день.

Сумы - район местоположения метеостанции


Название, широта, долгота, высота метеостанции:
Сумы 50.9°ш. 34.7°д. 181 м над ур. моря [Украина]

Дополнительная информация

В oтличие oт бoльшинства пoгoдных сайтoв мы публикуем пoдрoбную метеoинфoрмацию в детальнoм прoфессиoнальнoм фoрмате.

Характеристики температуры и влажнoсти вoздуха измеряются на высoте 2 м в тени вдали oт зданий и деревьев.
Скoрoсть ветра измеряется на высoте 10 м (на урoвне рoста челoвека скoрoсть ветра ниже в 1.5-2 раза). Если метеoстанция нахoдится в гoрoде или в лесу, тo скoрoсть ветра занижена на 2-4 м/с пo сравнению с oткрытым местoм. Скoрoсть ветра над акватoриями крупных рек и oзёр, а также на вершинах хoлмoв на 2-5 м/с выше, чем в oбычных услoвиях.
Атмoсфернoе давление в разных тoчках местнoсти мoжет значительнo oтличаться oт давления на метеoстанции, в зависимoсти oт услoвий рельефа (при пoдъёме на 10 м давление пoнижается примернo на 1 мм рт.ст.).